www.pogodaiklimat.ru

Погода и климат >> Архив погоды >> ОАЭ >> Dubai


АРХИВ ПОГОДЫ в Dubai

Время (UTC), дата Ветер
(напр.,м/с)
 
Видим.   Явления Облачность Т
(С)
Тd
(С)
f
(%)
Тe
(С)
Тes
(С)
Комфортность P
(гПа)
Po
(гПа)
Тmin
(С)
Tmax
(С)
R
(мм)
R24
(мм)
S
(см)
06 13.08 Ю 6 6000 м пыль ясно +39.8 +17.2 27 +42 +49 опасность
перегрева
1000.3 999.7 +34.3
09 13.08 СЗ 6 5000 м пыль ясно +40.7 +22.7 36 +49 +57 опасность
перегрева
999.5 998.9
12 13.08 СЗ 9 6000 м пыль ясно +37.5 +25.6 51 +52 +53 опасность
перегрева
998.6 998.1
18 13.08 В 3 10 км ясно +36.2 +26.6 58 +53 +53 опасность
перегрева
1000.1 999.5 +44.4
21 13.08 В 3 10 км ясно +35.5 +23.4 50 +46 +46 опасность
перегрева
1000.2 999.6
06 14.08 Ю 6 10 км 5/0
[Ac trans]
+40.2 +18.7 29 +44 +48 опасность
перегрева
1001.5 1001.0 +34.4
09 14.08 СЗ 6 6000 м пыль ясно +41.1 +20.6 31 +47 +56 опасность
перегрева
1000.8 1000.3
12 14.08 СЗ 6 8000 м пыль ясно +39.8 +20.9 34 +46 +50 опасность
перегрева
999.6 999.1
15 14.08 СВ 4 8000 м пыль ясно +37.9 +22.7 42 +47 +47 опасность
перегрева
999.6 999.1
21 14.08 В 3 10 км ясно +36.3 +23.5 48 +47 +47 опасность
перегрева
1000.9 1000.3
03 15.08 ЮВ 5 10 км 1/1 540 м
[Sc]
+34.2 +23.5 54 +45 +46 опасность
перегрева
1002.7 1002.1
06 15.08 ЮВ 5 8000 м пыль ясно +37.7 +22.6 42 +47 +55 опасность
перегрева
1003.6 1003.0 +33.8
09 15.08 СЗ 6 8000 м пыль 1/1 1050 м
[Cu hum]
+40.6 +20.6 32 +47 +55 опасность
перегрева
1002.1 1001.5
12 15.08 С 8 8000 м пыль ясно +40.1 +24.3 41 +52 +53 опасность
перегрева
1000.7 1000.1
15 15.08 С 3 8000 м пыль 3/0
[Ac trans]
+38.3 +26.0 50 +54 +54 опасность
перегрева
1001.0 1000.4
18 15.08 В 7 10 км ясно +37.1 +24.6 49 +50 +50 опасность
перегрева
1002.5 1002.0 +42.7
21 15.08 В 5 10 км ясно +35.6 +23.2 49 +46 +46 опасность
перегрева
1001.7 1001.2
00 16.08 В 3 10 км ясно +35.4 +22.3 47 +44 +44 опасность
перегрева
1002.1 1001.6
03 16.08 Ю 5 4000 м пыль 3/0
[Ac trans]
+32.1 +21.8 55 +41 +41 опасность
перегрева
1004.1 1003.6
06 16.08 Ю 3 7000 м пыль 3/0
[Ci fib]
+34.7 +22.7 50 +44 +56 опасность
перегрева
1005.5 1004.9 +31.9
09 16.08 СВ 2 8000 м пыль ясно +38.9 +23.6 42 +49 +70 опасность
перегрева
1003.5 1002.9
12 16.08 С 6 8000 м пыль ясно +37.0 +23.8 47 +48 +52 опасность
перегрева
1001.9 1001.3
18 16.08 СВ 4 10 км ясно +36.2 +22.7 46 +46 +46 опасность
перегрева
1003.4 1002.8 +39.3
21 16.08 СВ 3 10 км ясно +35.0 +22.6 49 +45 +45 опасность
перегрева
1002.1 1001.6
00 17.08 Ю 3 10 км ясно +34.3 +21.0 46 +42 +42 опасность
перегрева
1001.0 1000.5
03 17.08 Ю 5 10 км ясно +34.4 +18.4 39 +39 +40 очень
душно
1002.7 1002.2
06 17.08 ЮЗ 4 10 км ясно +36.7 +20.4 39 +43 +53 опасность
перегрева
1004.0 1003.4 +33.6
15 17.08 СЗ 5 10 км 4/0
[Ci fib]
+35.9 +23.1 48 +46 +46 опасность
перегрева
1001.0 1000.4
18 17.08 СЗ 3 10 км ясно +36.1 +23.0 47 +46 +46 опасность
перегрева
1001.8 1001.2 +40.5
09 18.08 З 5 10 км ясно +39.9 +17.3 27 +43 +53 опасность
перегрева
1001.9 1001.3
12 18.08 СЗ 5 10 км ясно +38.9 +22.0 38 +47 +51 опасность
перегрева
1000.1 999.5
15 18.08 З 4 10 км ясно +37.4 +20.2 37 +43 +43 опасность
перегрева
999.5 999.0
21 18.08 ЮЗ 2 10 км ясно +35.2 +23.1 50 +46 +46 опасность
перегрева
999.9 999.3
00 19.08 ЮВ 3 10 км ясно +34.5 +23.2 52 +45 +45 опасность
перегрева
999.1 998.6
03 19.08 нст 2 7000 м пыль ясно +33.5 +22.2 52 +43 +44 опасность
перегрева
1000.0 999.5
06 19.08 СВ 5 6000 м пыль ясно +37.5 +24.9 49 +51 +59 опасность
перегрева
1001.0 1000.5 +33.0
09 19.08 СЗ 6 6000 м пыль ясно +37.4 +28.6 61 +59 +68 опасность
перегрева
1000.0 999.5
12 19.08 С 6 5000 м пыль ясно +35.9 +30.0 72 +63 +66 опасность
перегрева
999.2 998.7
15 19.08 СЗ 4 5000 м мгла 3/0
[Ci fib]
+34.9 +30.4 78 +64 +64 опасность
перегрева
999.2 998.7

 

Местоположение метеостанции Dubai (ОАЭ): широта 25.25 долгота 55.33 высота над уровнем моря 5 м.

В архиве по умолчанию представлена погода в Dubai за последнюю неделю. Архивные данные за месяц целиком и за предыдущие месяцы, начиная с января 2011 года, Вы можете получить, выбрав интересующий диапазон дат из раскрывающегося списка и нажав кнопку "Ввод!".

Внимание! Время в таблицах - всемирное. Для получения местного времени необходимо прибавить поправку, которая в Dubai равна 4 ч.

Смотрите также архив погоды в соседних городах и на ближайших метеорологических станциях:

Погода в Sharjah (ОАЭ) (21 км)
Погода в Dubai Al Maktoum Int Airport (ОАЭ) (43 км)
Погода в Ras Al Khaimah Int Airport (ОАЭ) (73 км)
Погода в Abu Musa Island (Иран) (82 км)
Погода в Diba (Оман) (101 км)
Погода в Fujairah (ОАЭ) (102 км)
Погода в Sirri Island (Иран) (107 км)
Погода в Al Ain Int Airport (ОАЭ) (112 км)
Погода в Abu Dhabi (ОАЭ) (114 км)
Погода в Buraimi (Оман) (122 км)

Пояснения к столбцам:

Ветер - указаны скорость ветра в м/с - средняя за 10 мин, порывы в срок и между сроками (в фигурных скобках) и направление, откуда дует ветер: С - северный, СВ - северо-восточный, В - восточный, ЮВ - юго-восточный, Ю - южный, ЮЗ - юго-западный, З - западный, СЗ - северо-западный.
Видимость - горизонтальная дальность видимости в метрах или километрах. При видимости от 1 до 10 км при отсутствии осадков обычно наблюдается дымка, при ухудшении видимости до 1 км и менее - туман. В сухую погоду видимость может ухудшаться дымом, пылью или мглою.
Явления - указаны атмосферные явления, наблюдавшиеся в срок или в последний час перед сроком; фигурными скобками обозначены явления, наблюдавшиеся между сроками (за 1-3 часа до срока); квадратными скобками обозначены град или гололедные отложения с указанием их диаметра в мм.
Облачность - указаны через наклонную черту общая и нижняя облачность в баллах и высота нижней границы облаков в метрах; квадратными скобками обозначены формы облаков: Ci - перистые, Cs - перисто-слоистые, Cc - перисто-кучевые, Ac - высококучевые, As - высокослоистые, Sc - слоисто-кучевые, Ns - слоисто-дождевые, Cu - кучевые, Cb - кучево-дождевые. Подробнее классификацию облаков см. в Атласе облаков (PDF).
T - Температура воздуха - температура, измеренная на высоте 2 м над землей.
Td - Температура точки росы - температура, при понижении до которой содержащийся в воздухе водяной пар достигнет насыщения.
f - Относительная влажность воздуха - влажноcть воздуха, измеренная на высоте 2 м над землей.
Te - Эффективная температура - температура, которую ощущает одетый по сезону человек в тени. Характеристика душности погоды. При расчете учитывается влияние влажности воздуха и скорости ветра на теплоощущения человека.
Tes - Эффективная температура на солнце - температура, которую ощущает человек, с поправкой на солнечный нагрев. Характеристика знойности погоды. Зависит от высоты солнца над горизонтом, облачности и скорости ветра. Ночью, в пасмурную погоду, а также при ветре 12 м/с и более поправка равна нулю.
P - Атмосферное давление - приведенное к уровню моря атмосферное давление.
Po - Атмосферное давление - измеренное на уровне метеостанции атмосферное давление.
Tmin - Минимальная температура - минимум температуры воздуха на высоте 2 м над землей.
Tmax - Максимальная температура - максимум температуры воздуха на высоте 2 м над землей.
R - Количество осадков - Количество выпавших осадков за период времени, мм. При наведении курсора мыши на число - период времени, за который выпало указанное количество осадков.
R24 - Количество осадков - Количество выпавших осадков за 24 часа, мм.
S - Снежный покров - Высота снежного покрова, см. При наведении курсора мыши на число - состояние снежного покрова и степень покрытия местности в баллах.